GW3926 Weather Reports


time (UTC)temp
F
wind
direction
speed
knots
gust
knots
rain 1hr
in
rain 24hr
in
rain mn
in
humidity
%
barometer
mb
20260906150021 78 63 2.6 9.6 0.00 0.00 0.00 79 1017.2
20260906145510 77 83 2.6 8.7 0.00 0.00 0.00 80 1017.1
20260906145012 77 51 3.5 8.7 0.00 0.00 0.00 82 1017.0
20260906144526 76 36 2.6 7.8 0.00 0.00 0.00 82 1017.0
20260906144011 77 57 4.3 7.8 0.00 0.00 0.00 81 1017.0
20260906143505 77 105 2.6 7.8 0.00 0.00 0.00 80 1016.8
20260906143008 77 76 3.5 7.8 0.00 0.00 0.00 81 1016.6
20260906142507 77 74 2.6 7.8 0.00 0.00 0.00 80 1016.6
20260906142006 77 61 1.7 7.0 0.00 0.00 0.00 81 1016.7
20260906141511 76 60 3.5 7.0 0.00 0.00 0.00 82 1016.7
20260906141010 77 58 2.6 7.0 0.00 0.00 0.00 82 1016.7
20260906140510 76 32 2.6 6.1 0.00 0.00 0.00 83 1016.8
20260906140034 76 80 1.7 4.3 0.00 0.00 0.00 83 1016.8
20260906135515 76 61 2.6 4.3 0.00 0.00 0.00 83 1016.7
20260906135013 76 87 0.9 5.2 0.00 0.00 0.00 84 1016.6
20260906134523 75 24 3.5 7.0 0.00 0.00 0.00 83 1016.6
20260906134014 75 19 2.6 7.0 0.00 0.00 0.00 84 1016.6
20260906133511 75 53 0.9 7.8 0.00 0.00 0.00 84 1016.5
20260906133026 75 82 0.9 7.8 0.00 0.00 0.00 85 1016.6
20260906132516 75 36 1.7 5.2 0.00 0.00 0.00 84 1016.6
20260906132005 75 74 1.7 5.2 0.00 0.00 0.00 84 1016.6
20260906131511 74 40 0.9 5.2 0.00 0.00 0.00 85 1016.7
20260906131008 74 9 2.6 6.1 0.00 0.00 0.00 86 1016.7
20260906130508 74 349 1.7 7.0 0.00 0.00 0.00 86 1016.7
20260906130019 74 77 2.6 7.0 0.00 0.00 0.00 86 1016.7
20260906125508 74 57 1.7 6.1 0.00 0.00 0.00 86 1016.7
20260906125010 74 22 1.7 4.3 0.00 0.00 0.00 86 1016.7
20260906124522 73 65 0.9 3.5 0.00 0.00 0.00 86 1016.8
20260906124012 73 309 0.0 3.5 0.00 0.00 0.00 87 1016.6
20260906123512 73 33 0.9 3.5 0.00 0.00 0.00 87 1016.5
20260906123033 73 34 0.9 3.5 0.00 0.00 0.00 87 1016.4
20260906122514 73 31 0.9 2.6 0.00 0.00 0.00 87 1016.3
20260906122013 73 22 0.9 2.6 0.00 0.00 0.00 87 1016.3
20260906121538 73 11 0.0 1.7 0.00 0.00 0.00 87 1016.3
20260906121016 73 53 0.0 2.6 0.00 0.00 0.00 87 1016.3
20260906120506 73 17 0.0 2.6 0.00 0.00 0.00 87 1016.2
20260906120012 73 65 0.0 1.7 0.00 0.00 0.00 87 1016.0
20260906115508 73 30 0.0 1.7 0.00 0.00 0.00 87 1016.0
20260906115008 73 15 0.9 1.7 0.00 0.00 0.00 87 1015.9
20260906114529 73 29 0.9 2.6 0.00 0.00 0.00 87 1016.0
20260906114013 73 53 0.9 2.6 0.00 0.00 0.00 87 1016.0
20260906113511 73 57 0.0 2.6 0.00 0.00 0.00 87 1015.9
20260906113042 73 60 0.0 2.6 0.00 0.00 0.00 87 1015.9
20260906112515 73 34 0.9 1.7 0.00 0.00 0.00 87 1015.9
20260906112014 73 24 0.0 2.6 0.00 0.00 0.00 87 1015.9
20260906111528 73 69 0.0 2.6 0.00 0.00 0.00 87 1015.9
20260906111012 73 11 0.0 2.6 0.00 0.00 0.00 87 1015.9
20260906110514 74 12 0.0 2.6 0.00 0.00 0.00 86 1015.9
20260906110029 74 67 0.0 3.5 0.00 0.00 0.00 86 1015.8
20260906105515 74 31 0.0 3.5 0.00 0.00 0.00 86 1015.7
20260906105011 74 17 0.9 3.5 0.00 0.00 0.00 86 1015.6
20260906104525 74 40 0.9 2.6 0.00 0.00 0.00 86 1015.5
20260906104011 74 83 0.9 2.6 0.00 0.00 0.00 87 1015.5
20260906103513 74 36 0.0 1.7 0.00 0.00 0.00 87 1015.5
20260906103024 74 30 0.9 1.7 0.00 0.00 0.00 87 1015.4
20260906102513 75 50 0.0 1.7 0.00 0.00 0.00 86 1015.5
20260906102014 75 34 0.9 4.3 0.00 0.00 0.00 86 1015.5
20260906101529 75 36 0.9 4.3 0.00 0.00 0.00 86 1015.5
20260906101014 75 42 1.7 3.5 0.00 0.00 0.00 86 1015.5
20260906100514 75 66 0.9 3.5 0.00 0.00 0.00 85 1015.5
20260906100027 75 62 0.9 3.5 0.00 0.00 0.00 85 1015.3
20260906095515 75 44 0.9 4.3 0.00 0.00 0.00 85 1015.3
20260906095015 75 55 1.7 4.3 0.00 0.00 0.00 85 1015.2
20260906094534 75 38 1.7 3.5 0.00 0.00 0.00 86 1015.2
20260906094010 76 29 0.9 2.6 0.00 0.00 0.00 86 1015.0
20260906093510 76 49 0.0 2.6 0.00 0.00 0.00 86 1015.1
20260906093018 76 26 0.9 3.5 0.00 0.00 0.00 86 1015.2
20260906092512 76 28 0.9 3.5 0.00 0.00 0.00 86 1015.1
20260906092016 76 36 0.9 2.6 0.00 0.00 0.00 86 1015.2
20260906091532 76 57 0.9 5.2 0.00 0.00 0.00 86 1015.1
20260906091016 76 48 1.7 5.2 0.00 0.00 0.00 86 1015.0
20260906090515 76 11 0.0 3.5 0.00 0.00 0.00 85 1014.9
20260906090031 77 27 0.9 3.5 0.00 0.00 0.00 85 1014.9
20260906085521 77 18 0.0 3.5 0.00 0.00 0.00 85 1014.9
20260906085017 77 352 0.0 3.5 0.00 0.00 0.00 85 1015.0
20260906084532 77 16 0.9 3.5 0.00 0.00 0.00 85 1015.0
20260906084018 77 55 1.7 4.3 0.00 0.00 0.00 85 1014.9
20260906083518 77 348 0.0 4.3 0.00 0.00 0.00 85 1014.8
20260906083029 78 15 0.9 4.3 0.00 0.00 0.00 85 1014.7
20260906082511 78 75 0.9 6.1 0.00 0.00 0.00 84 1014.7
20260906082014 78 317 0.9 6.1 0.00 0.00 0.00 84 1014.6
20260906081539 78 49 2.6 6.1 0.00 0.00 0.00 85 1014.6
20260906081013 78 80 2.6 6.1 0.00 0.00 0.00 85 1014.6
20260906080515 78 101 0.9 4.3 0.00 0.00 0.00 86 1014.6
20260906080031 78 5 0.0 2.6 0.00 0.00 0.00 86 1014.5
20260906075513 78 31 0.0 3.5 0.00 0.00 0.00 86 1014.5
20260906075018 79 35 0.9 5.2 0.00 0.00 0.00 85 1014.6
20260906074531 79 69 0.0 5.2 0.00 0.00 0.00 85 1014.6
20260906074016 79 33 0.9 5.2 0.00 0.00 0.00 85 1014.6
20260906073514 79 24 0.9 5.2 0.00 0.00 0.00 85 1014.6
20260906073030 79 26 1.7 4.3 0.00 0.00 0.00 85 1014.6
20260906072515 79 310 1.7 4.3 0.00 0.00 0.00 85 1014.7
20260906072014 79 33 1.7 4.3 0.00 0.00 0.00 85 1014.7
20260906071530 79 32 0.9 4.3 0.00 0.00 0.00 85 1014.7
20260906071013 79 59 1.7 6.1 0.00 0.00 0.00 85 1014.7
20260906070516 79 52 2.6 4.3 0.00 0.00 0.00 85 1014.7
20260906070025 79 349 1.7 4.3 0.00 0.00 0.00 85 1014.6
20260906065514 80 299 0.9 3.5 0.00 0.00 0.00 84 1014.6
20260906065009 80 39 0.9 3.5 0.00 0.00 0.00 84 1014.5
20260906064507 80 46 1.7 3.5 0.00 0.00 0.00 83 1014.5
20260906064007 80 19 1.7 4.3 0.00 0.00 0.00 83 1014.6
20260906063506 81 13 0.9 4.3 0.00 0.00 0.00 82 1014.6
20260906063010 81 92 1.7 5.2 0.00 0.00 0.00 81 1014.6
20260906062507 81 9 0.9 4.3 0.00 0.00 0.00 81 1014.5
20260906062009 81 16 0.9 3.5 0.00 0.00 0.00 80 1014.4
20260906061516 82 81 0.0 4.3 0.00 0.00 0.00 80 1014.4
20260906061020 82 34 0.9 4.3 0.00 0.00 0.00 80 1014.5
20260906060513 82 60 0.0 1.7 0.00 0.00 0.00 79 1014.5
20260906060028 82 60 0.0 1.7 0.00 0.00 0.00 78 1014.5
20260906055514 82 44 0.0 1.7 0.00 0.00 0.00 78 1014.6
20260906055017 82 36 0.0 0.9 0.00 0.00 0.00 78 1014.6
20260906054534 82 32 0.0 0.0 0.00 0.00 0.00 78 1014.5
20260906054007 82 32 0.0 0.0 0.00 0.00 0.00 78 1014.5
20260906053505 82 32 0.0 0.0 0.00 0.00 0.00 77 1014.5
20260906053019 82 63 0.0 0.0 0.00 0.00 0.00 77 1014.5
20260906052507 82 63 0.0 0.0 0.00 0.00 0.00 77 1014.4
20260906052007 82 63 0.0 0.0 0.00 0.00 0.00 77 1014.3
20260906051516 83 63 0.0 1.7 0.00 0.00 0.00 76 1014.4
20260906051010 83 63 0.0 1.7 0.00 0.00 0.00 76 1014.4
20260906050512 83 20 0.0 1.7 0.00 0.00 0.00 75 1014.5
20260906050032 83 34 0.0 0.0 0.00 0.00 0.00 75 1014.4
20260906045513 83 28 0.0 0.0 0.00 0.00 0.00 75 1014.4
20260906045013 83 28 0.0 0.0 0.00 0.00 0.00 75 1014.4
20260906044534 83 28 0.0 0.0 0.00 0.00 0.00 75 1014.3
20260906044018 83 28 0.0 0.0 0.00 0.00 0.00 74 1014.2
20260906043515 83 28 0.0 0.0 0.00 0.00 0.00 74 1014.2
20260906043028 83 28 0.0 0.0 0.00 0.00 0.00 74 1014.1
20260906042506 83 28 0.0 0.0 0.00 0.00 0.00 74 1014.1
20260906042006 83 28 0.0 0.0 0.00 0.00 0.00 74 1014.1
20260906041513 83 28 0.0 0.0 0.00 0.00 0.00 74 1014.0
20260906041009 83 28 0.0 0.0 0.00 0.00 0.00 73 1014.1
20260906040513 83 28 0.0 0.0 0.00 0.00 0.00 73 1014.0
20260906040025 83 28 0.0 0.0 0.00 0.00 0.00 73 1013.9
20260906035509 83 28 0.0 0.0 0.00 0.00 0.00 72 1013.8
20260906035013 83 28 0.0 0.0 0.00 0.00 0.00 72 1013.8
20260906034528 84 28 0.0 0.0 0.00 0.00 0.00 71 1013.8
20260906034016 84 28 0.0 0.0 0.00 0.00 0.00 70 1013.8
20260906033514 84 28 0.0 0.0 0.00 0.00 0.00 71 1013.9
20260906033040 84 28 0.0 0.0 0.00 0.00 0.00 70 1013.9
20260906032515 84 28 0.0 0.0 0.00 0.00 0.00 70 1013.9
20260906032016 84 28 0.0 0.0 0.00 0.00 0.00 70 1013.9
20260906031531 84 28 0.0 0.0 0.00 0.00 0.00 70 1013.8
20260906031006 84 28 0.0 0.0 0.00 0.00 0.00 69 1013.8
20260906030506 84 28 0.0 0.0 0.00 0.00 0.00 69 1013.6
20260906030018 84 28 0.0 0.0 0.00 0.00 0.00 68 1013.5
20260906025509 84 28 0.0 0.0 0.00 0.00 0.00 68 1013.5
20260906025012 84 28 0.0 0.0 0.00 0.00 0.00 68 1013.5
20260906024524 84 28 0.0 0.0 0.00 0.00 0.00 67 1013.4
20260906024016 84 28 0.0 0.0 0.00 0.00 0.00 67 1013.3
20260906023513 85 28 0.0 0.0 0.00 0.00 0.00 67 1013.3
20260906023026 85 28 0.0 0.0 0.00 0.00 0.00 67 1013.2
20260906022518 85 28 0.0 0.0 0.00 0.00 0.00 67 1013.2
20260906022015 85 28 0.0 0.0 0.00 0.00 0.00 67 1013.1
20260906021533 85 28 0.0 0.0 0.00 0.00 0.00 66 1013.1
20260906021017 85 28 0.0 0.0 0.00 0.00 0.00 66 1013.0
20260906020518 85 28 0.0 0.0 0.00 0.00 0.00 67 1012.8
20260906020034 85 28 0.0 0.0 0.00 0.00 0.00 67 1012.7
20260906015506 86 28 0.0 0.0 0.00 0.00 0.00 66 1012.7
20260906015010 86 28 0.0 0.0 0.00 0.00 0.00 65 1012.5
20260906014520 86 28 0.0 0.0 0.00 0.00 0.00 65 1012.5
20260906014014 87 28 0.0 0.0 0.00 0.00 0.00 65 1012.5
20260906013512 87 28 0.0 0.0 0.00 0.00 0.00 64 1012.4
20260906013027 87 28 0.0 0.0 0.00 0.00 0.00 65 1012.4
20260906012517 87 299 0.0 0.0 0.00 0.00 0.00 65 1012.3
20260906012013 87 309 0.0 0.0 0.00 0.00 0.00 65 1012.3
20260906011536 87 313 0.0 0.0 0.00 0.00 0.00 64 1012.2
20260906011018 87 360 0.0 0.0 0.00 0.00 0.00 65 1012.2
20260906010519 87 26 0.0 0.0 0.00 0.00 0.00 64 1012.2
20260906010035 88 26 0.0 0.0 0.00 0.00 0.00 63 1012.2
20260906005516 88 26 0.0 0.0 0.00 0.00 0.00 63 1012.2
20260906005020 88 26 0.0 0.0 0.00 0.00 0.00 62 1012.1
20260906004533 89 352 0.0 1.7 0.00 0.00 0.00 61 1012.1
20260906004012 89 84 0.0 1.7 0.00 0.00 0.00 60 1012.1
20260906003519 89 14 0.0 1.7 0.00 0.00 0.00 60 1012.1
20260906003024 90 76 0.0 1.7 0.00 0.00 0.00 1012.0
20260906002512 90 15 0.0 1.7 0.00 0.00 0.00 58 1012.0
20260906002012 90 339 0.0 3.5 0.00 0.00 0.00 58 1012.1
20260906001529 90 360 0.9 3.5 0.00 0.00 0.00 1012.1
20260906001015 90 79 0.0 2.6 0.00 0.00 0.00 56 1012.2
20260906000515 90 161 0.0 4.3 0.00 0.00 0.00 56 1012.2
20260906000030 91 266 0.9 3.5 0.00 0.00 0.00 55 1012.2
20260905235517 91 28 0.9 3.5 0.00 0.00 0.00 55 1012.3
20260905235020 91 34 0.0 1.7 0.00 0.00 0.00 55 1012.3
20260905234530 91 292 0.9 5.2 0.00 0.00 0.00 54 1012.2
20260905234019 91 271 0.9 5.2 0.00 0.00 0.00 54 1012.3
20260905233518 92 253 0.0 1.7 0.00 0.00 0.00 53 1012.4
20260905233042 92 14 0.0 3.5 0.00 0.00 0.00 52 1012.3
20260905232511 93 247 0.9 7.0 0.00 0.00 0.00 52 1012.4
20260905232011 93 232 1.7 7.0 0.00 0.00 0.00 51 1012.4
20260905231526 94 248 0.9 6.1 0.00 0.00 0.00 50 1012.4
20260905231013 95 335 1.7 3.5 0.00 0.00 0.00 48 1012.4
20260905230515 95 30 0.0 5.2 0.00 0.00 0.00 48 1012.4
20260905230036 95 290 1.7 5.2 0.00 0.00 0.00 47 1012.4
20260905225515 95 227 0.0 3.5 0.00 0.00 0.00 47 1012.4
20260905225021 95 183 0.0 1.7 0.00 0.00 0.00 47 1012.4
20260905224545 95 5 0.0 1.7 0.00 0.00 0.00 46 1012.3
20260905224021 95 21 0.0 1.7 0.00 0.00 0.00 45 1012.2
20260905223518 96 96 0.9 1.7 0.00 0.00 0.00 45 1012.1
20260905223032 96 53 0.9 3.5 0.00 0.00 0.00 44 1012.1
20260905222518 96 42 0.9 3.5 0.00 0.00 0.00 45 1012.0
20260905222018 96 5 1.7 3.5 0.00 0.00 0.00 44 1012.1
20260905221539 96 14 1.7 7.0 0.00 0.00 0.00 44 1012.1
20260905221014 97 77 1.7 7.0 0.00 0.00 0.00 44 1012.1
20260905220503 98 44 2.6 7.0 0.00 0.00 0.00 42 1012.1
20260905220004 98 49 2.6 7.0 0.00 0.00 0.00 42 1012.1
20260905215504 98 47 1.7 7.0 0.00 0.00 0.00 41 1012.1
20260905215004 99 284 1.7 6.1 0.00 0.00 0.00 41 1012.1
20260905214508 99 44 1.7 6.1 0.00 0.00 0.00 41 1012.1
20260905214007 99 92 0.9 5.2 0.00 0.00 0.00 42 1012.2
20260905213508 98 350 0.9 5.2 0.00 0.00 0.00 43 1012.2
20260905213011 98 57 1.7 5.2 0.00 0.00 0.00 41 1012.1
20260905212508 99 76 1.7 7.0 0.00 0.00 0.00 41 1012.0
20260905212012 99 81 1.7 8.7 0.00 0.00 0.00 41 1012.0
20260905211516 99 70 2.6 8.7 0.00 0.00 0.00 41 1012.0
20260905211003 99 51 2.6 7.8 0.00 0.00 0.00 41 1012.0
20260905210503 99 289 0.0 4.3 0.00 0.00 0.00 43 1012.2
20260905210004 99 46 2.6 7.0 0.00 0.00 0.00 41 1012.3
20260905205504 99 106 2.6 6.1 0.00 0.00 0.00 41 1012.4
20260905205004 99 150 2.6 6.1 0.00 0.00 0.00 41 1012.5
20260905204507 99 51 1.7 6.1 0.00 0.00 0.00 43 1012.5
20260905204007 98 67 0.9 7.0 0.00 0.00 0.00 42 1012.5
20260905203507 98 34 1.7 7.0 0.00 0.00 0.00 43 1012.4
20260905203008 99 250 0.9 5.2 0.00 0.00 0.00 45 1012.4
20260905202515 99 360 1.7 4.3 0.00 0.00 0.00 40 1012.5
20260905202010 99 196 1.7 5.2 0.00 0.00 0.00 39 1012.7
20260905201514 98 22 1.7 7.0 0.00 0.00 0.00 40 1012.7
20260905201012 98 61 1.7 8.7 0.00 0.00 0.00 44 1012.6
20260905200511 99 29 3.5 8.7 0.00 0.00 0.00 42 1012.6
20260905200025 99 22 2.6 8.7 0.00 0.00 0.00 42 1012.7
20260905195504 100 46 0.9 8.7 0.00 0.00 0.00 44 1012.7
20260905195004 100 185 0.9 10.4 0.00 0.00 0.00 43 1012.7
20260905194505 100 207 1.7 10.4 0.00 0.00 0.00 43 1012.7
20260905194004 101 13 2.6 10.4 0.00 0.00 0.00 43 1013.0
20260905193505 101 288 3.5 8.7 0.00 0.00 0.00 40 1012.9
20260905193009 101 286 3.5 8.7 0.00 0.00 0.00 36 1012.9
20260905192506 102 121 3.5 10.4 0.00 0.00 0.00 36 1013.0
20260905192008 101 238 3.5 10.4 0.00 0.00 0.00 37 1013.0
20260905191512 101 293 5.2 10.4 0.00 0.00 0.00 37 1013.1
20260905191010 101 282 0.9 8.7 0.00 0.00 0.00 37 1013.1
20260905190510 101 238 5.2 8.7 0.00 0.00 0.00 36 1013.1
20260905190017 101 234 3.5 8.7 0.00 0.00 0.00 37 1013.2
20260905185515 101 215 5.2 8.7 0.00 0.00 0.00 37 1013.3
20260905185013 100 286 2.6 7.0 0.00 0.00 0.00 40 1013.3
20260905184528 99 304 0.9 8.7 0.00 0.00 0.00 39 1013.3
20260905184003 100 313 3.5 8.7 0.00 0.00 0.00 37 1013.3
20260905183504 100 298 1.7 8.7 0.00 0.00 0.00 39 1013.3
20260905183007 101 257 2.6 7.0 0.00 0.00 0.00 38 1013.5
20260905182506 100 236 2.6 6.1 0.00 0.00 0.00 40 1013.5
20260905182004 100 267 2.6 7.0 0.00 0.00 0.00 39 1013.5
20260905181511 100 181 0.9 7.0 0.00 0.00 0.00 40 1013.6
20260905181008 99 281 3.5 7.0 0.00 0.00 0.00 39 1013.6
20260905180510 99 305 2.6 5.2 0.00 0.00 0.00 38 1013.8
20260905180015 99 261 1.7 7.8 0.00 0.00 0.00 41 1013.8
20260905175509 99 258 3.5 7.8 0.00 0.00 0.00 42 1013.9
20260905175012 99 54 2.6 7.0 0.00 0.00 0.00 41 1014.0
20260905174526 99 207 0.9 7.0 0.00 0.00 0.00 43 1014.0
20260905174015 99 288 0.9 3.5 0.00 0.00 0.00 44 1014.1
20260905173515 98 16 0.9 3.5 0.00 0.00 0.00 46 1014.0
20260905173030 98 215 0.9 3.5 0.00 0.00 0.00 48 1014.0
20260905172504 98 323 0.9 3.5 0.00 0.00 0.00 47 1014.1
20260905172004 98 267 1.7 7.0 0.00 0.00 0.00 46 1014.1
20260905171513 97 235 3.5 7.0 0.00 0.00 0.00 48 1014.1
20260905171004 97 250 2.6 6.1 0.00 0.00 0.00 48 1014.2
20260905170517 96 257 1.7 6.1 0.00 0.00 0.00 48 1014.4
20260905170012 97 293 0.0 5.2 0.00 0.00 0.00 49 1014.5
20260905165520 96 246 1.7 5.2 0.00 0.00 0.00 51 1014.5
20260905165012 96 72 2.6 5.2 0.00 0.00 0.00 51 1014.6
20260905164536 96 360 1.7 4.3 0.00 0.00 0.00 49 1014.6
20260905164012 96 28 1.7 5.2 0.00 0.00 0.00 49 1014.7
20260905163512 96 327 1.7 5.2 0.00 0.00 0.00 51 1014.7
20260905163027 96 290 0.9 4.3 0.00 0.00 0.00 49 1014.9
20260905162516 95 268 1.7 5.2 0.00 0.00 0.00 51 1014.9
20260905162015 95 352 0.9 5.2 0.00 0.00 0.00 50 1014.9
20260905161530 95 285 1.7 5.2 0.00 0.00 0.00 50 1014.9
20260905161005 94 282 1.7 5.2 0.00 0.00 0.00 50 1014.8
20260905160505 94 259 0.0 3.5 0.00 0.00 0.00 53 1014.8
20260905160012 94 258 0.9 3.5 0.00 0.00 0.00 52 1014.9
20260905155508 93 194 0.9 5.2 0.00 0.00 0.00 52 1014.9
20260905155013 93 292 2.6 6.1 0.00 0.00 0.00 52 1014.9
20260905154514 93 315 2.6 6.1 0.00 0.00 0.00 52 1014.9
20260905154012 93 300 0.9 5.2 0.00 0.00 0.00 52 1015.0
20260905153512 94 317 0.0 4.3 0.00 0.00 0.00 52 1014.9
20260905153022 93 267 0.9 2.6 0.00 0.00 0.00 52 1015.0
20260905152516 93 271 0.9 7.8 0.00 0.00 0.00 52 1014.9
20260905152013 92 275 2.6 7.8 0.00 0.00 0.00 53 1014.8
20260905151534 92 324 1.7 6.1 0.00 0.00 0.00 55 1014.8
20260905151013 92 313 0.9 6.1 0.00 0.00 0.00 55 1014.9
20260905150516 91 336 1.7 2.6 0.00 0.00 0.00 57 1014.9